,,PA_Meas_PMT16A,,PR_Meas_QMR101_102,,RH_Meas_QMH101,,SR_Meas_QMS101,,TA_Meas_QMH101,,GenWind,,GenWind,
time,status,PA,status,PR,status,RH,status,SR,status,TA,status,DirAvg,status,SpdAvg,
2013-08-28, 00:00:04,VALID,917.774,VALID,0,VALID,96.4667,VALID,0,VALID,20.2879,VALID,126,VALID,0,
2013-08-28, 00:01:04,VALID,917.741,VALID,0,VALID,96.3676,VALID,0,VALID,20.1919,VALID,126,VALID,0,
2013-08-28, 00:02:04,VALID,917.789,VALID,0,VALID,96.299,VALID,0,VALID,20.0343,VALID,126,VALID,0,
2013-08-28, 00:03:04,VALID,917.794,VALID,0,VALID,96.2837,VALID,0,VALID,20.0733,VALID,126,VALID,0,
2013-08-28, 00:04:04,VALID,917.808,VALID,0,VALID,96.2914,VALID,0,VALID,20.0343,VALID,126,VALID,0,
2013-08-28, 00:05:04,VALID,917.838,VALID,0,VALID,96.36,VALID,0,VALID,20.0733,VALID,126,VALID,0,
2013-08-28, 00:06:04,VALID,917.824,VALID,0,VALID,96.3981,VALID,0,VALID,20.1513,VALID,126,VALID,0,
2013-08-28, 00:07:04,VALID,917.86,VALID,0,VALID,96.3981,VALID,0,VALID,20.0358,VALID,126,VALID,0,
2013-08-28, 00:08:04,VALID,917.864,VALID,0,VALID,96.3905,VALID,0,VALID,20.0343,VALID,126,VALID,0,
2013-08-28, 00:09:04,VALID,917.859,VALID,0,VALID,96.3905,VALID,0,VALID,19.9968,VALID,126,VALID,0,
2013-08-28, 00:10:04,VALID,917.866,VALID,0,VALID,96.421,VALID,0,VALID,20.0148,VALID,126,VALID,0,
2013-08-28, 00:11:04,VALID,917.84,VALID,0,VALID,96.4133,VALID,0,VALID,19.9953,VALID,126,VALID,0,
2013-08-28, 00:12:04,VALID,917.825,VALID,0,VALID,96.4667,VALID,0,VALID,20.0733,VALID,126,VALID,0,
2013-08-28, 00:13:04,VALID,917.832,VALID,0,VALID,96.4819,VALID,0,VALID,20.1139,VALID,126,VALID,0,
2013-08-28, 00:14:04,VALID,917.788,VALID,0,VALID,96.4972,VALID,0,VALID,20.1123,VALID,126,VALID,0,
2013-08-28, 00:15:04,VALID,917.768,VALID,0,VALID,96.4972,VALID,0.107441,VALID,20.0913,VALID,126,VALID,0,
2013-08-28, 00:16:04,VALID,917.772,VALID,0,VALID,96.4667,VALID,0.107441,VALID,19.9938,VALID,126,VALID,0,
2013-08-28, 00:17:04,VALID,917.765,VALID,0,VALID,96.4896,VALID,0,VALID,20.0523,VALID,126,VALID,0,
2013-08-28, 00:18:04,VALID,917.779,VALID,0,VALID,96.4591,VALID,0,VALID,19.9938,VALID,126,VALID,0,
2013-08-28, 00:19:04,VALID,917.819,VALID,0,VALID,96.4667,VALID,0.107441,VALID,19.9953,VALID,126,VALID,0,
2013-08-28, 00:20:04,VALID,917.823,VALID,0,VALID,96.4667,VALID,0.107441,VALID,19.9743,VALID,126,VALID,0,
2013-08-28, 00:21:04,VALID,917.845,VALID,0,VALID,96.4743,VALID,0,VALID,19.9353,VALID,126,VALID,0,
2013-08-28, 00:22:04,VALID,917.83,VALID,0,VALID,96.4819,VALID,0.107441,VALID,19.9353,VALID,126,VALID,0,
2013-08-28, 00:23:04,VALID,917.842,VALID,0,VALID,96.4972,VALID,0.107441,VALID,19.9158,VALID,126,VALID,0,
2013-08-28, 00:24:04,VALID,917.816,VALID,0,VALID,96.5124,VALID,0.107441,VALID,19.9353,VALID,126,VALID,0,
2013-08-28, 00:25:04,VALID,917.827,VALID,0,VALID,96.5353,VALID,0.107441,VALID,19.9743,VALID,126,VALID,0,
2013-08-28, 00:26:04,VALID,917.836,VALID,0,VALID,96.5658,VALID,0.107441,VALID,20.0328,VALID,126,VALID,0,
2013-08-28, 00:27:04,VALID,917.84,VALID,0,VALID,96.5811,VALID,0,VALID,20.0328,VALID,126,VALID,0,
2013-08-28, 00:28:04,VALID,917.815,VALID,0,VALID,96.5811,VALID,0.107441,VALID,19.9938,VALID,126,VALID,0,
2013-08-28, 00:29:04,VALID,917.836,VALID,0,VALID,96.5734,VALID,0,VALID,19.9953,VALID,126,VALID,0,
2013-08-28, 00:30:04,VALID,917.823,VALID,0,VALID,96.5887,VALID,0,VALID,20.0148,VALID,87,VALID,0,
2013-08-28, 00:31:04,VALID,917.824,VALID,0,VALID,96.6115,VALID,0,VALID,20.0343,VALID,87,VALID,0,
2013-08-28, 00:32:04,VALID,917.822,VALID,0,VALID,96.6268,VALID,0,VALID,20.0553,VALID,87,VALID,0,
2013-08-28, 00:33:04,VALID,917.832,VALID,0,VALID,96.6192,VALID,0,VALID,20.0343,VALID,87,VALID,0,
2013-08-28, 00:34:04,VALID,917.809,VALID,0,VALID,96.6192,VALID,0,VALID,20.0553,VALID,87,VALID,0,
2013-08-28, 00:35:04,VALID,917.84,VALID,0,VALID,96.6344,VALID,0,VALID,20.0749,VALID,87,VALID,0,
2013-08-28, 00:36:04,VALID,917.801,VALID,0,VALID,96.6497,VALID,0,VALID,20.0749,VALID,87,VALID,0,
2013-08-28, 00:37:04,VALID,917.821,VALID,0,VALID,96.642,VALID,0,VALID,20.0538,VALID,87,VALID,0,
2013-08-28, 00:38:04,VALID,917.801,VALID,0,VALID,96.642,VALID,0,VALID,20.0749,VALID,87,VALID,0,
2013-08-28, 00:39:04,VALID,917.781,VALID,0,VALID,96.6573,VALID,0,VALID,20.1139,VALID,87,VALID,0,
2013-08-28, 00:40:04,VALID,917.764,VALID,0,VALID,96.6802,VALID,0,VALID,20.1318,VALID,87,VALID,0,
2013-08-28, 00:41:04,VALID,917.72,VALID,0,VALID,96.6954,VALID,0,VALID,20.1513,VALID,87,VALID,0,
2013-08-28, 00:42:04,VALID,917.725,VALID,0,VALID,96.703,VALID,0,VALID,20.1919,VALID,87,VALID,0,
2013-08-28, 00:43:04,VALID,917.697,VALID,0,VALID,96.703,VALID,0,VALID,20.2309,VALID,87,VALID,0,
2013-08-28, 00:44:04,VALID,917.665,VALID,0,VALID,96.7183,VALID,0,VALID,20.2684,VALID,87,VALID,0,
2013-08-28, 00:45:04,VALID,917.659,VALID,0,VALID,96.7335,VALID,0,VALID,20.3253,VALID,87,VALID,0,
2013-08-28, 00:46:04,VALID,917.661,VALID,0,VALID,96.7335,VALID,0,VALID,20.3659,VALID,87,VALID,0,
2013-08-28, 00:47:04,VALID,917.607,VALID,0,VALID,96.7183,VALID,0.107441,VALID,20.3448,VALID,87,VALID,0,
2013-08-28, 00:48:04,VALID,917.617,VALID,0,VALID,96.7259,VALID,0.107441,VALID,20.3253,VALID,87,VALID,0,
2013-08-28, 00:49:04,VALID,917.603,VALID,0,VALID,96.7488,VALID,0,VALID,20.3058,VALID,89,VALID,0,
2013-08-28, 00:50:04,VALID,917.554,VALID,0,VALID,96.7335,VALID,0,VALID,20.3058,VALID,89,VALID,0,
2013-08-28, 00:51:04,VALID,917.548,VALID,0,VALID,96.7259,VALID,0.107441,VALID,20.3074,VALID,89,VALID,0,
2013-08-28, 00:52:04,VALID,917.509,VALID,0,VALID,96.7335,VALID,0,VALID,20.2879,VALID,89,VALID,0,
2013-08-28, 00:53:04,VALID,917.488,VALID,0,VALID,96.7488,VALID,0,VALID,20.2684,VALID,89,VALID,0,
2013-08-28, 00:54:04,VALID,917.479,VALID,0,VALID,96.7411,VALID,0.107441,VALID,20.2473,VALID,89,VALID,0,
2013-08-28, 00:55:04,VALID,917.465,VALID,0,VALID,96.7564,VALID,0,VALID,20.2489,VALID,89,VALID,0,
2013-08-28, 00:56:05,VALID,917.447,VALID,0,VALID,96.7488,VALID,0.107441,VALID,20.2489,VALID,89,VALID,0,
2013-08-28, 00:57:05,VALID,917.446,VALID,0,VALID,96.7564,VALID,0.107441,VALID,20.2293,VALID,89,VALID,0,
2013-08-28, 00:58:05,VALID,917.463,VALID,0,VALID,96.764,VALID,0,VALID,20.2098,VALID,89,VALID,0,
2013-08-28, 00:59:05,VALID,917.437,VALID,0,VALID,96.7564,VALID,0,VALID,20.2504,VALID,89,VALID,0,
2013-08-28, 01:00:05,VALID,917.444,VALID,0,VALID,96.764,VALID,0,VALID,20.2489,VALID,89,VALID,0,
2013-08-28, 01:01:05,VALID,917.444,VALID,0,VALID,96.7869,VALID,0,VALID,20.2293,VALID,89,VALID,0,
2013-08-28, 01:02:05,VALID,917.413,VALID,0,VALID,96.7869,VALID,0,VALID,20.2489,VALID,89,VALID,0,
2013-08-28, 01:03:05,VALID,917.382,VALID,0,VALID,96.7869,VALID,0,VALID,20.2293,VALID,89,VALID,0,
2013-08-28, 01:04:05,VALID,917.375,VALID,0,VALID,96.7793,VALID,0,VALID,20.2699,VALID,89,VALID,0,
2013-08-28, 01:05:05,VALID,917.355,VALID,0,VALID,96.8021,VALID,0,VALID,20.2098,VALID,89,VALID,0,
2013-08-28, 01:06:05,VALID,917.322,VALID,0,VALID,96.7945,VALID,0,VALID,20.2293,VALID,89,VALID,0,
2013-08-28, 01:07:05,VALID,917.334,VALID,0,VALID,96.7945,VALID,0,VALID,20.2098,VALID,89,VALID,0,
2013-08-28, 01:08:05,VALID,917.291,VALID,0,VALID,96.7945,VALID,0,VALID,20.1903,VALID,89,VALID,0,
2013-08-28, 01:09:05,VALID,917.266,VALID,0,VALID,96.8098,VALID,0,VALID,20.1903,VALID,89,VALID,0,
2013-08-28, 01:10:05,VALID,917.234,VALID,0,VALID,96.8021,VALID,0,VALID,20.2293,VALID,89,VALID,0,
2013-08-28, 01:11:05,VALID,917.247,VALID,0,VALID,96.8021,VALID,0,VALID,20.2293,VALID,89,VALID,0,
2013-08-28, 01:12:05,VALID,917.197,VALID,0,VALID,96.8098,VALID,0,VALID,20.2489,VALID,89,VALID,0,
2013-08-28, 01:13:05,VALID,917.163,VALID,0,VALID,96.8098,VALID,0,VALID,20.1903,VALID,89,VALID,0,
2013-08-28, 01:14:05,VALID,917.122,VALID,0,VALID,96.8174,VALID,0,VALID,20.1903,VALID,89,VALID,0,
2013-08-28, 01:15:05,VALID,917.117,VALID,0,VALID,96.8174,VALID,0,VALID,20.2114,VALID,126,VALID,0,
2013-08-28, 01:16:05,VALID,917.136,VALID,0,VALID,96.8403,VALID,0,VALID,20.1513,VALID,126,VALID,0,
2013-08-28, 01:17:05,VALID,917.097,VALID,0,VALID,96.825,VALID,0,VALID,20.1513,VALID,126,VALID,0,
2013-08-28, 01:18:05,VALID,917.124,VALID,0,VALID,96.8403,VALID,0,VALID,20.1903,VALID,126,VALID,0,
2013-08-28, 01:19:05,VALID,917.11,VALID,0,VALID,96.8326,VALID,0,VALID,20.1513,VALID,126,VALID,0,
2013-08-28, 01:20:05,VALID,917.106,VALID,0,VALID,96.8326,VALID,0,VALID,20.2309,VALID,126,VALID,0,
2013-08-28, 01:21:05,VALID,917.077,VALID,0,VALID,96.8479,VALID,0,VALID,20.1708,VALID,126,VALID,0,
2013-08-28, 01:22:05,VALID,917.07,VALID,0,VALID,96.8479,VALID,0,VALID,20.2114,VALID,126,VALID,0,
2013-08-28, 01:23:05,VALID,917.029,VALID,0,VALID,96.8555,VALID,0,VALID,20.1708,VALID,126,VALID,0,
2013-08-28, 01:24:05,VALID,917.023,VALID,0,VALID,96.8479,VALID,0,VALID,20.2098,VALID,126,VALID,0,
2013-08-28, 01:25:05,VALID,917.005,VALID,0,VALID,96.8479,VALID,0,VALID,20.1708,VALID,126,VALID,0,
2013-08-28, 01:26:05,VALID,916.969,VALID,0,VALID,96.8631,VALID,0,VALID,20.2098,VALID,126,VALID,0,
2013-08-28, 01:27:05,VALID,916.973,VALID,0,VALID,96.8555,VALID,0,VALID,20.1529,VALID,163,VALID,0,
2013-08-28, 01:28:05,VALID,916.94,VALID,0,VALID,96.8631,VALID,0,VALID,20.1318,VALID,163,VALID,0,
2013-08-28, 01:29:05,VALID,916.921,VALID,0,VALID,96.8707,VALID,0,VALID,20.1513,VALID,163,VALID,0,
2013-08-28, 01:30:05,VALID,916.947,VALID,0,VALID,96.8784,VALID,0,VALID,20.1708,VALID,163,VALID,0,
2013-08-28, 01:31:05,VALID,916.894,VALID,0,VALID,96.8936,VALID,0,VALID,20.1513,VALID,163,VALID,0,
2013-08-28, 01:32:05,VALID,916.911,VALID,0,VALID,96.886,VALID,0,VALID,20.1708,VALID,163,VALID,0,
2013-08-28, 01:33:05,VALID,916.914,VALID,0,VALID,96.886,VALID,0,VALID,20.2098,VALID,163,VALID,0,
2013-08-28, 01:34:05,VALID,916.904,VALID,0,VALID,96.8707,VALID,0,VALID,20.1513,VALID,163,VALID,0,
2013-08-28, 01:35:05,VALID,916.892,VALID,0,VALID,96.886,VALID,0,VALID,20.0928,VALID,163,VALID,0,
2013-08-28, 01:36:05,VALID,916.858,VALID,0,VALID,96.9089,VALID,0,VALID,20.0928,VALID,163,VALID,0,
2013-08-28, 01:37:05,VALID,916.873,VALID,0,VALID,96.8936,VALID,0,VALID,20.0928,VALID,163,VALID,0,
2013-08-28, 01:38:05,VALID,916.861,VALID,0,VALID,96.9089,VALID,0,VALID,20.1123,VALID,148,VALID,0,
2013-08-28, 01:39:05,VALID,916.857,VALID,0,VALID,96.9241,VALID,0,VALID,20.0538,VALID,147,VALID,0,
2013-08-28, 01:40:05,VALID,916.87,VALID,0,VALID,96.9012,VALID,0,VALID,20.0749,VALID,147,VALID,0,
2013-08-28, 01:41:05,VALID,916.856,VALID,0,VALID,96.8936,VALID,0,VALID,20.0538,VALID,147,VALID,0,
2013-08-28, 01:42:05,VALID,916.86,VALID,0,VALID,96.9012,VALID,0,VALID,20.0749,VALID,147,VALID,0,
2013-08-28, 01:43:05,VALID,916.867,VALID,0,VALID,96.9012,VALID,0,VALID,20.0538,VALID,147,VALID,0,
2013-08-28, 01:44:05,VALID,916.847,VALID,0,VALID,96.9012,VALID,0,VALID,20.0343,VALID,145,VALID,0,
2013-08-28, 01:45:05,VALID,916.88,VALID,0,VALID,96.9165,VALID,0,VALID,20.0343,VALID,145,VALID,0,
2013-08-28, 01:46:05,VALID,916.907,VALID,0,VALID,96.9317,VALID,0,VALID,20.0538,VALID,133,VALID,0,
2013-08-28, 01:47:05,VALID,916.858,VALID,0,VALID,96.9317,VALID,0,VALID,19.9938,VALID,133,VALID,0,
2013-08-28, 01:48:05,VALID,916.892,VALID,0,VALID,96.9165,VALID,0,VALID,20.0343,VALID,133,VALID,0,
2013-08-28, 01:49:05,VALID,916.86,VALID,0,VALID,96.9317,VALID,0,VALID,20.0148,VALID,127,VALID,0,
2013-08-28, 01:50:05,VALID,916.889,VALID,0,VALID,96.9241,VALID,0,VALID,19.9563,VALID,116,VALID,0,
2013-08-28, 01:51:05,VALID,916.88,VALID,0,VALID,96.9317,VALID,0,VALID,20.0343,VALID,74,VALID,0,
2013-08-28, 01:52:05,VALID,916.873,VALID,0,VALID,96.9546,VALID,0,VALID,19.9953,VALID,97,VALID,0,
2013-08-28, 01:53:05,VALID,916.848,VALID,0,VALID,96.947,VALID,0,VALID,19.9953,VALID,113,VALID,0,
2013-08-28, 01:54:05,VALID,916.848,VALID,0,VALID,96.947,VALID,0,VALID,20.0343,VALID,120,VALID,0,
2013-08-28, 01:55:05,VALID,916.826,VALID,0,VALID,96.9546,VALID,0,VALID,19.9563,VALID,120,VALID,0,
2013-08-28, 01:56:05,VALID,916.791,VALID,0,VALID,96.947,VALID,0,VALID,19.9953,VALID,99,VALID,0,
2013-08-28, 01:57:05,VALID,916.773,VALID,0,VALID,96.9698,VALID,0,VALID,20.0358,VALID,84,VALID,0,
2013-08-28, 01:58:05,VALID,916.793,VALID,0,VALID,96.947,VALID,0,VALID,19.9578,VALID,74,VALID,0,
2013-08-28, 01:59:05,VALID,916.759,VALID,0,VALID,96.9546,VALID,0.107441,VALID,19.9158,VALID,76,VALID,0,
2013-08-28, 02:00:05,VALID,916.744,VALID,0,VALID,96.9546,VALID,0,VALID,19.9353,VALID,100,VALID,0,
2013-08-28, 02:01:05,VALID,916.72,VALID,0,VALID,96.9622,VALID,0,VALID,19.9353,VALID,76,VALID,0,
2013-08-28, 02:02:05,VALID,916.713,VALID,0,VALID,96.9622,VALID,0.107441,VALID,19.9158,VALID,89,VALID,0,
2013-08-28, 02:03:05,VALID,916.72,VALID,0,VALID,96.9622,VALID,0,VALID,19.9173,VALID,78,VALID,0,
2013-08-28, 02:04:05,VALID,916.682,VALID,0,VALID,96.9622,VALID,0.107441,VALID,19.8963,VALID,72,VALID,0,
2013-08-28, 02:05:05,VALID,916.687,VALID,0,VALID,96.9851,VALID,0,VALID,19.8573,VALID,87,VALID,0,
2013-08-28, 02:06:05,VALID,916.697,VALID,0,VALID,96.9698,VALID,0.107441,VALID,19.8783,VALID,85,VALID,0,
2013-08-28, 02:07:05,VALID,916.672,VALID,0,VALID,96.9927,VALID,0,VALID,19.7988,VALID,132,VALID,0,
2013-08-28, 02:08:05,VALID,916.689,VALID,0,VALID,96.9927,VALID,0.107441,VALID,19.8573,VALID,117,VALID,0,
2013-08-28, 02:09:05,VALID,916.669,VALID,0,VALID,96.9927,VALID,0,VALID,19.8573,VALID,110,VALID,0,
2013-08-28, 02:10:05,VALID,916.639,VALID,0,VALID,96.9927,VALID,0.107441,VALID,19.8378,VALID,110,VALID,0,
2013-08-28, 02:11:05,VALID,916.619,VALID,0,VALID,96.9927,VALID,0.107441,VALID,19.8378,VALID,111,VALID,0,
2013-08-28, 02:12:05,VALID,916.605,VALID,0,VALID,97.0003,VALID,0,VALID,19.8393,VALID,111,VALID,0,
2013-08-28, 02:13:05,VALID,916.607,VALID,0,VALID,96.9927,VALID,0.107441,VALID,19.8183,VALID,116,VALID,0,
2013-08-28, 02:14:05,VALID,916.625,VALID,0,VALID,97.0232,VALID,0,VALID,19.8198,VALID,132,VALID,0,
2013-08-28, 02:15:05,VALID,916.637,VALID,0,VALID,97.008,VALID,0,VALID,19.7823,VALID,128,VALID,0,
2013-08-28, 02:16:05,VALID,916.647,VALID,0,VALID,97.008,VALID,0,VALID,19.7418,VALID,128,VALID,0,
2013-08-28, 02:17:05,VALID,916.662,VALID,0,VALID,97.008,VALID,0,VALID,19.7808,VALID,140,VALID,0,
2013-08-28, 02:18:05,VALID,916.656,VALID,0,VALID,97.0232,VALID,0,VALID,19.8018,VALID,166,VALID,0,
2013-08-28, 02:19:05,VALID,916.649,VALID,0,VALID,97.0156,VALID,0,VALID,19.7823,VALID,150,VALID,0,
2013-08-28, 02:20:05,VALID,916.626,VALID,0,VALID,97.0232,VALID,0,VALID,19.7823,VALID,164,VALID,0,
2013-08-28, 02:21:05,VALID,916.641,VALID,0,VALID,97.008,VALID,0,VALID,19.7808,VALID,168,VALID,0,
2013-08-28, 02:22:05,VALID,916.606,VALID,0,VALID,97.0232,VALID,0,VALID,19.7433,VALID,168,VALID,0,
2013-08-28, 02:23:05,VALID,916.597,VALID,0,VALID,97.0308,VALID,0,VALID,19.8018,VALID,173,VALID,0,
2013-08-28, 02:24:05,VALID,916.582,VALID,0,VALID,97.0232,VALID,0,VALID,19.7628,VALID,173,VALID,0,
2013-08-28, 02:25:05,VALID,916.587,VALID,0,VALID,97.0308,VALID,0,VALID,19.7628,VALID,145,VALID,0,
2013-08-28, 02:26:05,VALID,916.572,VALID,0,VALID,97.0385,VALID,0,VALID,19.7433,VALID,166,VALID,0,
2013-08-28, 02:27:05,VALID,916.55,VALID,0,VALID,97.0308,VALID,0,VALID,19.7238,VALID,167,VALID,0,
2013-08-28, 02:28:05,VALID,916.528,VALID,0,VALID,97.0232,VALID,0,VALID,19.8018,VALID,167,VALID,0,
2013-08-28, 02:29:05,VALID,916.539,VALID,0,VALID,97.0385,VALID,0,VALID,19.7433,VALID,166,VALID,0,
2013-08-28, 02:30:05,VALID,916.529,VALID,0,VALID,97.0613,VALID,0,VALID,19.7223,VALID,139,VALID,0,
2013-08-28, 02:31:05,VALID,916.516,VALID,0,VALID,97.0461,VALID,0,VALID,19.7238,VALID,139,VALID,0,
2013-08-28, 02:32:05,VALID,916.495,VALID,0,VALID,97.0461,VALID,0,VALID,19.7823,VALID,126,VALID,0,
2013-08-28, 02:33:05,VALID,916.507,VALID,0,VALID,97.069,VALID,0,VALID,19.7238,VALID,121,VALID,0,
2013-08-28, 02:34:05,VALID,916.509,VALID,0,VALID,97.0613,VALID,0,VALID,19.6848,VALID,119,VALID,0,
2013-08-28, 02:35:05,VALID,916.501,VALID,0,VALID,97.0461,VALID,0,VALID,19.6638,VALID,107,VALID,0,
2013-08-28, 02:36:05,VALID,916.496,VALID,0,VALID,97.0537,VALID,0,VALID,19.6638,VALID,134,VALID,0,
2013-08-28, 02:37:05,VALID,916.456,VALID,0,VALID,97.0537,VALID,0,VALID,19.6833,VALID,145,VALID,0,
2013-08-28, 02:38:05,VALID,916.483,VALID,0,VALID,97.0613,VALID,0,VALID,19.6248,VALID,149,VALID,0,
2013-08-28, 02:39:05,VALID,916.493,VALID,0,VALID,97.069,VALID,0,VALID,19.6053,VALID,134,VALID,0,
2013-08-28, 02:40:05,VALID,916.47,VALID,0,VALID,97.069,VALID,0,VALID,19.5873,VALID,136,VALID,0,
2013-08-28, 02:41:05,VALID,916.467,VALID,0,VALID,97.0613,VALID,0,VALID,19.6068,VALID,143,VALID,0,
2013-08-28, 02:42:05,VALID,916.513,VALID,0,VALID,97.0842,VALID,0,VALID,19.5483,VALID,85,VALID,0,
2013-08-28, 02:43:05,VALID,916.518,VALID,0,VALID,97.0842,VALID,0,VALID,19.5678,VALID,99,VALID,0,
2013-08-28, 02:44:05,VALID,916.507,VALID,0,VALID,97.0918,VALID,0,VALID,19.5663,VALID,84,VALID,0,
2013-08-28, 02:45:05,VALID,916.553,VALID,0,VALID,97.0842,VALID,0,VALID,19.4703,VALID,105,VALID,0,
2013-08-28, 02:46:05,VALID,916.538,VALID,0,VALID,97.0766,VALID,0,VALID,19.5093,VALID,115,VALID,0,
2013-08-28, 02:47:05,VALID,916.549,VALID,0,VALID,97.0918,VALID,0,VALID,19.4493,VALID,121,VALID,0,
2013-08-28, 02:48:05,VALID,916.583,VALID,0,VALID,97.0918,VALID,0,VALID,19.4688,VALID,132,VALID,0,
2013-08-28, 02:49:05,VALID,916.549,VALID,0,VALID,97.1071,VALID,0,VALID,19.4703,VALID,115,VALID,0,
2013-08-28, 02:50:05,VALID,916.561,VALID,0,VALID,97.0994,VALID,0,VALID,19.4103,VALID,123,VALID,0,
2013-08-28, 02:51:05,VALID,916.575,VALID,0,VALID,97.0994,VALID,0,VALID,19.4313,VALID,104,VALID,0,
2013-08-28, 02:52:05,VALID,916.519,VALID,0,VALID,97.1147,VALID,0,VALID,19.3713,VALID,137,VALID,0,
2013-08-28, 02:53:05,VALID,916.531,VALID,0,VALID,97.0918,VALID,0,VALID,19.3713,VALID,133,VALID,0,
2013-08-28, 02:54:05,VALID,916.512,VALID,0,VALID,97.1071,VALID,0,VALID,19.4103,VALID,96,VALID,0,
2013-08-28, 02:55:05,VALID,916.528,VALID,0,VALID,97.1299,VALID,0,VALID,19.3533,VALID,129,VALID,0,
2013-08-28, 02:56:05,VALID,916.513,VALID,0,VALID,97.1071,VALID,0,VALID,19.3323,VALID,124,VALID,0,
2013-08-28, 02:57:05,VALID,916.509,VALID,0,VALID,97.1147,VALID,0,VALID,19.3533,VALID,116,VALID,0,
2013-08-28, 02:58:05,VALID,916.5,VALID,0,VALID,97.1147,VALID,0,VALID,19.3128,VALID,90,VALID,0,
2013-08-28, 02:59:05,VALID,916.503,VALID,0,VALID,97.1223,VALID,0,VALID,19.3923,VALID,117,VALID,0,
2013-08-28, 03:00:05,VALID,916.484,VALID,0,VALID,97.1223,VALID,0,VALID,19.3728,VALID,103,VALID,0,
2013-08-28, 03:01:05,VALID,916.466,VALID,0,VALID,97.1223,VALID,0,VALID,19.3143,VALID,123,VALID,0,
2013-08-28, 03:02:05,VALID,916.454,VALID,0,VALID,97.1376,VALID,0,VALID,19.2933,VALID,120,VALID,0,
2013-08-28, 03:03:05,VALID,916.426,VALID,0,VALID,97.1223,VALID,0,VALID,19.2948,VALID,113,VALID,0,
2013-08-28, 03:04:05,VALID,916.43,VALID,0,VALID,97.1376,VALID,0,VALID,19.2738,VALID,125,VALID,0,
2013-08-28, 03:05:05,VALID,916.392,VALID,0,VALID,97.1452,VALID,0,VALID,19.2948,VALID,133,VALID,0,
2013-08-28, 03:06:05,VALID,916.378,VALID,0,VALID,97.1757,VALID,0,VALID,19.2363,VALID,129,VALID,0,
2013-08-28, 03:07:05,VALID,916.352,VALID,0,VALID,97.1223,VALID,0,VALID,19.2753,VALID,168,VALID,0,
2013-08-28, 03:08:05,VALID,916.309,VALID,0,VALID,97.1299,VALID,0,VALID,19.2558,VALID,135,VALID,0,
2013-08-28, 03:09:05,VALID,916.316,VALID,0,VALID,97.1528,VALID,0,VALID,19.2348,VALID,133,VALID,0,
2013-08-28, 03:10:05,VALID,916.299,VALID,0,VALID,97.1376,VALID,0,VALID,19.1778,VALID,136,VALID,0,
2013-08-28, 03:11:05,VALID,916.286,VALID,0,VALID,97.1376,VALID,0,VALID,19.1958,VALID,136,VALID,0,
2013-08-28, 03:12:05,VALID,916.326,VALID,0,VALID,97.1452,VALID,0,VALID,19.1568,VALID,139,VALID,0,
2013-08-28, 03:13:05,VALID,916.331,VALID,0,VALID,97.1452,VALID,0,VALID,19.1568,VALID,133,VALID,0,
2013-08-28, 03:14:05,VALID,916.33,VALID,0,VALID,97.1452,VALID,0,VALID,19.2153,VALID,156,VALID,0,
2013-08-28, 03:15:05,VALID,916.343,VALID,0,VALID,97.1528,VALID,0.107441,VALID,19.1763,VALID,155,VALID,0,
2013-08-28, 03:16:05,VALID,916.37,VALID,0,VALID,97.1528,VALID,0,VALID,19.1568,VALID,155,VALID,0,
2013-08-28, 03:17:05,VALID,916.348,VALID,0,VALID,97.1452,VALID,0,VALID,19.1763,VALID,151,VALID,0,
2013-08-28, 03:18:05,VALID,916.317,VALID,0,VALID,97.1681,VALID,0.107441,VALID,19.1763,VALID,155,VALID,0,
2013-08-28, 03:19:05,VALID,916.341,VALID,0,VALID,97.1757,VALID,0,VALID,19.1373,VALID,155,VALID,0,
2013-08-28, 03:20:05,VALID,916.327,VALID,0,VALID,97.1681,VALID,0,VALID,19.1763,VALID,155,VALID,0,
2013-08-28, 03:21:05,VALID,916.326,VALID,0,VALID,97.1604,VALID,0,VALID,19.1763,VALID,155,VALID,0,
2013-08-28, 03:22:05,VALID,916.325,VALID,0,VALID,97.1681,VALID,0.107441,VALID,19.1763,VALID,155,VALID,0,
2013-08-28, 03:23:05,VALID,916.324,VALID,0,VALID,97.1681,VALID,0,VALID,19.2348,VALID,155,VALID,0,
2013-08-28, 03:24:05,VALID,916.294,VALID,0,VALID,97.1604,VALID,0,VALID,19.2348,VALID,166,VALID,0,
2013-08-28, 03:25:05,VALID,916.282,VALID,0,VALID,97.1528,VALID,0.107441,VALID,19.2348,VALID,168,VALID,0,
2013-08-28, 03:26:05,VALID,916.306,VALID,0,VALID,97.1681,VALID,0,VALID,19.2543,VALID,168,VALID,0,
2013-08-28, 03:27:05,VALID,916.293,VALID,0,VALID,97.1833,VALID,0,VALID,19.2348,VALID,164,VALID,0,
2013-08-28, 03:28:05,VALID,916.307,VALID,0,VALID,97.1681,VALID,0.107441,VALID,19.2153,VALID,164,VALID,0,
2013-08-28, 03:29:05,VALID,916.268,VALID,0,VALID,97.1833,VALID,0,VALID,19.1973,VALID,164,VALID,0,
2013-08-28, 03:30:05,VALID,916.225,VALID,0,VALID,97.1681,VALID,0,VALID,19.2168,VALID,164,VALID,0,
2013-08-28, 03:31:05,VALID,916.238,VALID,0,VALID,97.1604,VALID,0,VALID,19.1763,VALID,164,VALID,0,
2013-08-28, 03:32:05,VALID,916.21,VALID,0,VALID,97.1757,VALID,0,VALID,19.2168,VALID,125,VALID,0,
2013-08-28, 03:33:05,VALID,916.144,VALID,0,VALID,97.1604,VALID,0,VALID,19.1568,VALID,132,VALID,0,
2013-08-28, 03:34:05,VALID,916.131,VALID,0,VALID,97.1681,VALID,0.107441,VALID,19.1373,VALID,132,VALID,0,
2013-08-28, 03:35:05,VALID,916.124,VALID,0,VALID,97.1757,VALID,0.107441,VALID,19.1178,VALID,117,VALID,0,
2013-08-28, 03:36:05,VALID,916.13,VALID,0,VALID,97.1604,VALID,0,VALID,19.1373,VALID,116,VALID,0,
2013-08-28, 03:37:05,VALID,916.084,VALID,0,VALID,97.1833,VALID,0,VALID,19.1178,VALID,116,VALID,0,
2013-08-28, 03:38:04,VALID,916.09,VALID,0,VALID,97.1909,VALID,0,VALID,19.1164,VALID,116,VALID,0,
2013-08-28, 03:39:04,VALID,916.087,VALID,0,VALID,97.1681,VALID,0,VALID,19.0983,VALID,116,VALID,0,
2013-08-28, 03:40:04,VALID,916.088,VALID,0,VALID,97.1986,VALID,0,VALID,19.0579,VALID,116,VALID,0,
2013-08-28, 03:41:04,VALID,916.069,VALID,0,VALID,97.1986,VALID,0.107441,VALID,19.0593,VALID,116,VALID,0,
2013-08-28, 03:42:04,VALID,916.106,VALID,0,VALID,97.1833,VALID,0,VALID,18.9994,VALID,116,VALID,0,
2013-08-28, 03:43:04,VALID,916.106,VALID,0,VALID,97.1833,VALID,0.107441,VALID,19.0008,VALID,116,VALID,0,
2013-08-28, 03:44:04,VALID,916.114,VALID,0,VALID,97.2062,VALID,0,VALID,18.9633,VALID,116,VALID,0,
2013-08-28, 03:45:04,VALID,916.117,VALID,0,VALID,97.1986,VALID,0,VALID,18.9647,VALID,116,VALID,0,
2013-08-28, 03:46:04,VALID,916.108,VALID,0,VALID,97.2062,VALID,0,VALID,18.9438,VALID,116,VALID,0,
2013-08-28, 03:47:04,VALID,916.166,VALID,0,VALID,97.1986,VALID,0,VALID,18.9243,VALID,116,VALID,0,
2013-08-28, 03:48:04,VALID,916.138,VALID,0,VALID,97.1833,VALID,0,VALID,18.9243,VALID,116,VALID,0,
2013-08-28, 03:49:04,VALID,916.122,VALID,0,VALID,97.2062,VALID,0,VALID,18.9048,VALID,116,VALID,0,
2013-08-28, 03:50:04,VALID,916.115,VALID,0,VALID,97.1986,VALID,0,VALID,18.9048,VALID,116,VALID,0,
2013-08-28, 03:51:04,VALID,916.139,VALID,0,VALID,97.2062,VALID,0,VALID,18.9243,VALID,116,VALID,0,
2013-08-28, 03:52:04,VALID,916.122,VALID,0,VALID,97.229,VALID,0,VALID,18.9243,VALID,116,VALID,0,
2013-08-28, 03:53:04,VALID,916.069,VALID,0,VALID,97.2062,VALID,0,VALID,18.9048,VALID,116,VALID,0,
2013-08-28, 03:54:04,VALID,916.099,VALID,0,VALID,97.1986,VALID,0,VALID,18.9243,VALID,116,VALID,0,
2013-08-28, 03:55:04,VALID,916.08,VALID,0,VALID,97.2214,VALID,0,VALID,18.9438,VALID,116,VALID,0,
2013-08-28, 03:56:04,VALID,916.076,VALID,0,VALID,97.1986,VALID,0,VALID,18.9633,VALID,116,VALID,0,
2013-08-28, 03:57:04,VALID,916.094,VALID,0,VALID,97.2062,VALID,0,VALID,18.9619,VALID,116,VALID,0,
2013-08-28, 03:58:04,VALID,916.079,VALID,0,VALID,97.2443,VALID,0,VALID,18.9828,VALID,116,VALID,0,